| time (UTC) | temp F | wind direction | speed knots | gust knots | rain 1hr in | rain 24hr in | rain mn in | humidity % | barometer mb |
| 20260508080017 | 39 | 360 | 0.0 | 0.0 | 0.00 | 0.11 | 0.00 | 79 | 1003.6 |
| 20260508080010 | 38 | 332 | 1.7 | 8.7 | 0.00 | 0.07 | 0.00 | 88 | 1002.1 |
| 20260508074518 | 40 | 293 | 0.0 | 0.0 | 0.00 | 0.11 | 0.00 | 78 | 1003.6 |
| 20260508073012 | 40 | 313 | 0.0 | 0.0 | 0.00 | 0.11 | 0.00 | 78 | 1003.7 |
| 20260508071512 | 40 | 303 | 0.0 | 0.9 | 0.00 | 0.19 | 0.00 | 77 | 1003.6 |
| 20260508070510 | 37 | 343 | 0.9 | 2.6 | 0.00 | 0.12 | 0.00 | 88 | 1002.3 |
| 20260508070010 | 37 | 332 | 0.0 | 5.2 | 0.00 | 0.12 | 0.00 | 88 | 1002.5 |
| 20260508064508 | 41 | 268 | 0.0 | 1.7 | 0.00 | 0.19 | 0.00 | 77 | 1003.6 |
| 20260508063009 | 39 | 311 | 0.0 | 1.7 | 0.00 | 0.18 | 0.00 | 84 | 1002.4 |
| 20260508063006 | 41 | 302 | 0.0 | 0.0 | 0.00 | 0.19 | 0.00 | 77 | 1003.7 |
| 20260508061504 | 41 | 294 | 0.0 | 0.0 | 0.00 | 0.23 | 0.00 | 77 | 1003.8 |
| 20260508060510 | 41 | 311 | 0.0 | 1.7 | 0.00 | 0.20 | 0.00 | 84 | 1002.9 |
| 20260508060010 | 41 | 311 | 0.0 | 2.6 | 0.00 | 0.20 | 0.00 | 84 | 1002.9 |
| 20260508060005 | 41 | 280 | 0.0 | 0.0 | 0.00 | 0.23 | 0.00 | 76 | 1004.0 |
| 20260508054559 | 42 | 296 | 0.0 | 0.0 | 0.00 | 0.23 | 0.00 | 75 | 1004.0 |
| 20260508053030 | 43 | 210 | 0.0 | 1.7 | 0.00 | 0.23 | 0.00 | 74 | 1004.0 |
| 20260508053011 | 42 | 316 | 0.0 | 2.6 | 0.00 | 0.20 | 0.00 | 82 | 1002.9 |
| 20260508051529 | 44 | 295 | 0.0 | 0.0 | 0.00 | 0.28 | 0.00 | 73 | 1004.0 |
| 20260508050054 | 44 | 307 | 0.0 | 0.0 | 0.00 | 0.28 | 0.00 | 72 | 1004.3 |
| 20260508044550 | 44 | 314 | 0.0 | 2.6 | 0.00 | 0.28 | 0.00 | 72 | 1004.5 |
| 20260508043509 | 43 | 320 | 0.9 | 2.6 | 0.00 | 0.23 | 0.00 | 85 | 1002.9 |
| 20260508043050 | 45 | 295 | 0.0 | 0.0 | 0.00 | 0.28 | 0.00 | 72 | 1004.6 |
| 20260508043010 | 43 | 320 | 0.9 | 4.3 | 0.00 | 0.24 | 0.00 | 85 | 1002.9 |
| 20260508041543 | 45 | 328 | 0.0 | 2.6 | 0.00 | 0.30 | 0.00 | 71 | 1004.4 |
| 20260508040510 | 43 | 358 | 1.7 | 2.6 | 0.00 | 0.24 | 0.00 | 87 | 1002.9 |
| 20260508040040 | 45 | 307 | 0.0 | 0.0 | 0.00 | 0.30 | 0.00 | 74 | 1004.5 |
| 20260508040010 | 43 | 331 | 1.7 | 2.6 | 0.00 | 0.25 | 0.00 | 88 | 1002.9 |
| 20260508034547 | 45 | 221 | 0.0 | 0.0 | 0.00 | 0.30 | 0.00 | 78 | 1004.5 |
| 20260508033039 | 45 | 310 | 0.0 | 0.0 | 0.00 | 0.30 | 0.00 | 80 | 1004.4 |
| 20260508031536 | 45 | 295 | 0.0 | 0.0 | 0.00 | 0.30 | 0.00 | 82 | 1004.3 |
| 20260508030032 | 46 | 296 | 0.0 | 0.0 | 0.00 | 0.30 | 0.00 | 82 | 1004.3 |
| 20260508030011 | 45 | 335 | 0.0 | 0.0 | 0.00 | 0.25 | 0.00 | 85 | 1002.8 |
| 20260508024528 | 46 | 301 | 0.0 | 0.0 | 0.00 | 0.30 | 0.00 | 81 | 1004.3 |
| 20260508023511 | 46 | 335 | 0.0 | 0.0 | 0.00 | 0.25 | 0.25 | 83 | 1002.8 |
| 20260508023026 | 47 | 322 | 0.0 | 0.0 | 0.00 | 0.30 | 0.00 | 80 | 1004.2 |
| 20260508021527 | 47 | 337 | 0.0 | 0.0 | 0.00 | 0.30 | 0.00 | 79 | 1004.3 |
| 20260508020511 | 47 | 335 | 0.9 | 2.6 | 0.00 | 0.25 | 0.25 | 82 | 1002.8 |
| 20260508020031 | 47 | 335 | 0.0 | 0.0 | 0.00 | 0.30 | 0.00 | 77 | 1004.3 |
| 20260508014519 | 48 | 19 | 0.0 | 0.0 | 0.00 | 0.30 | 0.00 | 75 | 1004.4 |
| 20260508013017 | 48 | 322 | 0.0 | 0.9 | 0.00 | 0.30 | 0.00 | 73 | 1004.4 |
| 20260508011514 | 49 | 13 | 0.0 | 0.0 | 0.00 | 0.31 | 0.00 | 73 | 1004.4 |
| 20260508010011 | 50 | 340 | 1.7 | 8.7 | 0.00 | 0.26 | 0.25 | 77 | 1002.6 |
| 20260508004510 | 49 | 323 | 0.0 | 6.1 | 0.00 | 0.31 | 0.00 | 71 | 1004.1 |
| 20260508003510 | 51 | 327 | 5.2 | 7.8 | 0.00 | 0.26 | 0.25 | 74 | 1002.0 |
| 20260508003010 | 51 | 337 | 4.3 | 11.3 | 0.00 | 0.26 | 0.25 | 74 | 1002.0 |
| 20260508003005 | 50 | 293 | 0.0 | 8.7 | 0.00 | 0.31 | 0.00 | 71 | 1004.3 |
| 20260508001501 | 51 | 11 | 0.0 | 4.3 | 0.00 | 0.31 | 0.31 | 70 | 1004.0 |
| 20260508000510 | 53 | 227 | 4.3 | 11.3 | 0.00 | 0.26 | 0.25 | 71 | 1002.0 |
| 20260508000030 | 52 | 294 | 0.0 | 6.1 | 0.00 | 0.31 | 0.31 | 66 | 1003.6 |
| 20260507234539 | 54 | 2 | 0.0 | 2.6 | 0.00 | 0.31 | 0.31 | 59 | 1003.2 |
| 20260507233509 | 55 | 270 | 2.6 | 13.9 | 0.00 | 0.26 | 0.25 | 61 | 1000.7 |
| 20260507233027 | 55 | 307 | 0.0 | 0.9 | 0.00 | 0.31 | 0.31 | 53 | 1002.8 |
| 20260507231527 | 56 | 334 | 0.0 | 4.3 | 0.00 | 0.31 | 0.31 | 50 | 1002.5 |
| 20260507230026 | 57 | 307 | 0.0 | 3.5 | 0.00 | 0.31 | 0.31 | 45 | 1002.3 |
| 20260507230009 | 57 | 304 | 1.7 | 4.3 | 0.00 | 0.26 | 0.25 | 51 | 1000.7 |
| 20260507224527 | 57 | 295 | 0.0 | 0.0 | 0.00 | 0.31 | 0.31 | 46 | 1002.3 |
| 20260507223509 | 58 | 322 | 0.9 | 2.6 | 0.00 | 0.26 | 0.25 | 51 | 1000.5 |
| 20260507223025 | 58 | 323 | 0.0 | 0.0 | 0.00 | 0.31 | 0.31 | 44 | 1002.3 |
| 20260507221522 | 58 | 307 | 0.0 | 0.0 | 0.00 | 0.31 | 0.31 | 43 | 1002.3 |
| 20260507220509 | 59 | 286 | 0.9 | 2.6 | 0.00 | 0.27 | 0.25 | 48 | 1000.4 |
| 20260507220021 | 59 | 120 | 0.0 | 0.0 | 0.00 | 0.31 | 0.31 | 43 | 1002.2 |
| 20260507220009 | 59 | 286 | 2.6 | 10.4 | 0.00 | 0.27 | 0.25 | 46 | 1000.4 |
| 20260507214524 | 59 | 313 | 0.0 | 0.0 | 0.00 | 0.31 | 0.31 | 42 | 1002.1 |
| 20260507213021 | 59 | 294 | 0.0 | 1.7 | 0.00 | 0.31 | 0.31 | 43 | 1002.0 |
| 20260507211518 | 60 | 292 | 0.0 | 0.9 | 0.00 | 0.31 | 0.31 | 41 | 1002.0 |
| 20260507210017 | 60 | 302 | 0.0 | 2.6 | 0.00 | 0.31 | 0.31 | 42 | 1001.9 |
| 20260507204516 | 61 | 329 | 0.0 | 0.0 | 0.00 | 0.31 | 0.31 | 40 | 1001.8 |
| 20260507203016 | 61 | 306 | 0.0 | 0.9 | 0.00 | 0.31 | 0.31 | 41 | 1001.8 |
| 20260507201553 | 61 | 330 | 0.0 | 0.9 | 0.00 | 0.31 | 0.31 | 41 | 1001.8 |
| 20260507200045 | 62 | 311 | 0.0 | 3.5 | 0.00 | 0.31 | 0.31 | 40 | 1001.9 |
| 20260507200009 | 63 | 281 | 2.6 | 10.4 | 0.00 | 0.27 | 0.25 | 44 | 1000.3 |
| 20260507194540 | 61 | 174 | 0.0 | 7.8 | 0.00 | 0.31 | 0.31 | 44 | 1002.0 |
| 20260507193509 | 61 | 261 | 3.5 | 6.1 | 0.00 | 0.27 | 0.25 | 45 | 1000.2 |
| 20260507193048 | 59 | 359 | 0.0 | 10.4 | 0.00 | 0.31 | 0.31 | 45 | 1001.9 |
| 20260507191537 | 59 | 49 | 0.9 | 5.2 | 0.00 | 0.31 | 0.31 | 43 | 1002.0 |
| 20260507190037 | 59 | 355 | 0.0 | 3.5 | 0.00 | 0.31 | 0.31 | 47 | 1002.1 |
| 20260507184533 | 59 | 347 | 0.0 | 5.2 | 0.00 | 0.31 | 0.31 | 50 | 1002.2 |
| 20260507183037 | 60 | 6 | 0.0 | 3.5 | 0.00 | 0.31 | 0.31 | 49 | 1002.2 |
| 20260507183009 | 61 | 319 | 2.6 | 8.7 | 0.00 | 0.27 | 0.25 | 55 | 1000.5 |
| 20260507181531 | 60 | 295 | 0.0 | 7.0 | 0.00 | 0.31 | 0.31 | 53 | 1002.2 |
| 20260507180508 | 60 | 327 | 3.5 | 8.7 | 0.00 | 0.27 | 0.25 | 53 | 1001.1 |
| 20260507180030 | 59 | 33 | 0.0 | 9.6 | 0.00 | 0.31 | 0.31 | 55 | 1002.3 |
| 20260507174527 | 58 | 37 | 3.5 | 7.8 | 0.00 | 0.31 | 0.31 | 53 | 1002.5 |
| 20260507173508 | 60 | 292 | 5.2 | 10.4 | 0.00 | 0.27 | 0.25 | 63 | 1001.1 |
| 20260507173035 | 59 | 285 | 0.0 | 6.1 | 0.00 | 0.31 | 0.31 | 60 | 1002.6 |
| 20260507171520 | 58 | 56 | 2.6 | 8.7 | 0.00 | 0.31 | 0.31 | 56 | 1002.8 |
| 20260507170509 | 59 | 296 | 4.3 | 8.7 | 0.00 | 0.27 | 0.25 | 63 | 1001.1 |
| 20260507170017 | 57 | 341 | 0.0 | 7.8 | 0.00 | 0.31 | 0.31 | 62 | 1002.8 |
| 20260507170009 | 59 | 329 | 5.2 | 12.2 | 0.00 | 0.27 | 0.25 | 64 | 1001.1 |
| 20260507164511 | 56 | 312 | 0.0 | 4.3 | 0.00 | 0.31 | 0.31 | 64 | 1002.9 |
| 20260507163008 | 57 | 332 | 4.3 | 11.3 | 0.00 | 0.27 | 0.25 | 67 | 1001.5 |
| 20260507161517 | 54 | 350 | 0.0 | 0.9 | 0.00 | 0.31 | 0.31 | 73 | 1003.3 |
| 20260507160509 | 56 | 300 | 5.2 | 13.0 | 0.00 | 0.27 | 0.25 | 72 | 1002.4 |
| 20260507160008 | 56 | 310 | 2.6 | 10.4 | 0.00 | 0.27 | 0.25 | 76 | 1002.4 |
| 20260507160004 | 53 | 44 | 0.0 | 1.7 | 0.00 | 0.31 | 0.31 | 79 | 1003.6 |
| 20260507154536 | 52 | 25 | 0.0 | 5.2 | 0.00 | 0.31 | 0.31 | 81 | 1003.7 |
| 20260507153031 | 50 | 313 | 0.0 | 7.8 | 0.00 | 0.31 | 0.31 | 89 | 1004.0 |
| 20260507153009 | 55 | 297 | 4.3 | 10.4 | 0.00 | 0.27 | 0.25 | 74 | 1002.4 |
| 20260507151601 | 49 | 329 | 0.9 | 5.2 | 0.00 | 0.31 | 0.31 | 88 | 1003.9 |
| 20260507150508 | 54 | 342 | 3.5 | 8.7 | 0.00 | 0.27 | 0.25 | 77 | 1002.4 |
| 20260507150100 | 49 | 27 | 0.0 | 4.3 | 0.00 | 0.31 | 0.31 | 88 | 1004.0 |
| 20260507144616 | 49 | 19 | 0.0 | 1.7 | 0.00 | 0.31 | 0.31 | 87 | 1004.4 |
| 20260507143508 | 52 | 252 | 4.3 | 10.4 | 0.00 | 0.27 | 0.25 | 83 | 1002.7 |
| 20260507143057 | 48 | 328 | 0.0 | 0.0 | 0.00 | 0.31 | 0.31 | 87 | 1004.5 |
| 20260507143009 | 51 | 345 | 2.6 | 7.8 | 0.00 | 0.27 | 0.25 | 83 | 1002.7 |
| 20260507141620 | 48 | 292 | 0.0 | 7.0 | 0.00 | 0.31 | 0.31 | 87 | 1004.2 |
| 20260507140508 | 51 | 328 | 2.6 | 7.0 | 0.00 | 0.27 | 0.25 | 84 | 1002.8 |
| 20260507140054 | 48 | 303 | 0.0 | 2.6 | 0.00 | 0.31 | 0.31 | 86 | 1004.2 |
| 20260507134552 | 47 | 314 | 0.0 | 3.5 | 0.00 | 0.31 | 0.31 | 86 | 1004.3 |
| 20260507133051 | 47 | 30 | 0.0 | 3.5 | 0.00 | 0.31 | 0.31 | 85 | 1004.0 |
| 20260507131550 | 47 | 333 | 0.0 | 0.0 | 0.00 | 0.31 | 0.31 | 84 | 1004.0 |
| 20260507130055 | 47 | 232 | 0.0 | 0.0 | 0.00 | 0.31 | 0.31 | 84 | 1004.7 |
| 20260507124546 | 47 | 278 | 0.0 | 0.0 | 0.00 | 0.31 | 0.31 | 84 | 1004.9 |
| 20260507123049 | 47 | 303 | 0.0 | 0.0 | 0.00 | 0.31 | 0.31 | 83 | 1004.3 |
| 20260507121546 | 47 | 311 | 0.0 | 2.6 | 0.00 | 0.31 | 0.31 | 83 | 1004.3 |
| 20260507120508 | 48 | 343 | 1.7 | 7.8 | 0.00 | 0.27 | 0.25 | 94 | 1002.6 |
| 20260507120047 | 46 | 300 | 0.0 | 2.6 | 0.00 | 0.31 | 0.31 | 83 | 1004.1 |
| 20260507114543 | 46 | 238 | 0.0 | 0.0 | 0.00 | 0.31 | 0.31 | 83 | 1003.6 |
| 20260507113042 | 46 | 302 | 0.0 | 4.3 | 0.00 | 0.31 | 0.31 | 83 | 1003.6 |
| 20260507113009 | 48 | 290 | 1.7 | 7.8 | 0.00 | 0.28 | 0.25 | 95 | 1002.2 |
| 20260507111544 | 46 | 267 | 0.0 | 0.9 | 0.00 | 0.32 | 0.31 | 82 | 1003.7 |
| 20260507110508 | 48 | 295 | 1.7 | 4.3 | 0.00 | 0.28 | 0.25 | 96 | 1002.3 |
| 20260507110041 | 46 | 238 | 0.0 | 0.0 | 0.00 | 0.32 | 0.31 | 82 | 1004.0 |
| 20260507104538 | 46 | 188 | 0.0 | 0.9 | 0.00 | 0.32 | 0.31 | 82 | 1004.1 |
| 20260507103508 | 48 | 304 | 1.7 | 2.6 | 0.00 | 0.28 | 0.25 | 96 | 1002.0 |
| 20260507103040 | 47 | 214 | 0.0 | 6.1 | 0.00 | 0.32 | 0.31 | 82 | 1003.5 |
| 20260507101545 | 47 | 300 | 0.0 | 0.0 | 0.00 | 0.32 | 0.31 | 82 | 1003.3 |
| 20260507100042 | 47 | 289 | 0.0 | 1.7 | 0.00 | 0.32 | 0.31 | 82 | 1003.0 |
| 20260507094542 | 47 | 319 | 0.0 | 4.3 | 0.01 | 0.32 | 0.31 | 82 | 1003.0 |
| 20260507093508 | 48 | 252 | 1.7 | 5.2 | 0.01 | 0.28 | 0.25 | 96 | 1001.5 |
| 20260507093036 | 47 | 195 | 0.0 | 0.0 | 0.01 | 0.32 | 0.31 | 82 | 1002.8 |
| 20260507093008 | 48 | 234 | 0.9 | 8.7 | 0.01 | 0.28 | 0.25 | 96 | 1000.8 |
| 20260507091532 | 47 | 303 | 0.0 | 4.3 | 0.02 | 0.32 | 0.31 | 82 | 1002.5 |
| 20260507090508 | 49 | 279 | 0.9 | 4.3 | 0.05 | 0.28 | 0.24 | 96 | 1000.8 |
| 20260507090035 | 47 | 316 | 0.0 | 0.0 | 0.07 | 0.32 | 0.31 | 82 | 1002.0 |
| 20260507084535 | 47 | 330 | 0.0 | 0.0 | 0.09 | 0.31 | 0.30 | 82 | 1001.8 |
| 20260507083027 | 48 | 238 | 0.0 | 0.0 | 0.10 | 0.31 | 0.30 | 82 | 1001.9 |
| 20260507081526 | 48 | 284 | 0.0 | 0.0 | 0.09 | 0.30 | 0.28 | 82 | 1002.1 |